Time,TemperatureF,DewpointF,PressureIn,WindDirection,WindDirectionDegrees,WindSpeedMPH,WindSpeedGustMPH,Humidity,HourlyPrecipIn,Conditions,Clouds,dailyrainin,SoftwareType,DateUTC
2013-03-22 00:00:00,29.5,18.5,29.65,West,273,0.0,4.0,63,0.00,,,0.15,WeatherCatV1.02B3,2013-03-22 04:00:00,
2013-03-22 00:05:00,29.4,17.6,29.65,WNW,290,4.0,6.0,61,0.00,,,0.00,WeatherCatV1.02B3,2013-03-22 04:05:00,
2013-03-22 00:06:00,29.4,17.6,29.66,NW,321,5.0,6.0,61,0.00,,,0.00,WeatherCatV1.02B3,2013-03-22 04:06:00,
2013-03-22 00:11:00,29.4,17.6,29.65,WNW,283,1.0,5.0,61,0.00,,,0.00,WeatherCatV1.02B3,2013-03-22 04:11:00,
2013-03-22 00:16:00,29.3,17.5,29.65,West,277,1.0,5.0,61,0.00,,,0.00,WeatherCatV1.02B3,2013-03-22 04:16:00,
2013-03-22 00:21:00,29.3,17.5,29.65,West,262,0.0,5.0,61,0.00,,,0.00,WeatherCatV1.02B3,2013-03-22 04:21:00,
2013-03-22 00:26:00,29.2,17.4,29.66,WNW,285,3.0,5.0,61,0.00,,,0.00,WeatherCatV1.02B3,2013-03-22 04:26:00,
2013-03-22 00:31:00,29.2,17.4,29.66,West,278,5.0,7.0,61,0.00,,,0.00,WeatherCatV1.02B3,2013-03-22 04:31:00,
2013-03-22 00:36:00,29.1,17.0,29.65,West,278,3.0,6.0,60,0.00,,,0.00,WeatherCatV1.02B3,2013-03-22 04:36:00,
2013-03-22 00:41:00,29.0,17.3,29.65,WNW,296,2.0,4.0,61,0.00,,,0.00,WeatherCatV1.02B3,2013-03-22 04:41:00,
2013-03-22 00:46:00,28.9,17.5,29.65,West,277,0.0,7.0,62,0.00,,,0.00,WeatherCatV1.02B3,2013-03-22 04:46:00,
2013-03-22 00:51:00,28.9,17.5,29.65,West,280,3.0,7.0,62,0.00,,,0.00,WeatherCatV1.02B3,2013-03-22 04:51:00,
2013-03-22 00:56:00,28.9,17.5,29.66,West,273,6.0,6.0,62,0.00,,,0.00,WeatherCatV1.02B3,2013-03-22 04:56:00,
2013-03-22 01:01:00,29.0,17.6,29.66,WSW,255,3.0,5.0,62,0.00,,,0.00,WeatherCatV1.02B3,2013-03-22 05:01:00,
2013-03-22 01:06:00,29.0,17.6,29.65,West,277,5.0,5.0,62,0.00,,,0.00,WeatherCatV1.02B3,2013-03-22 05:06:00,
2013-03-22 01:11:00,29.0,17.6,29.66,WNW,293,0.0,6.0,62,0.00,,,0.00,WeatherCatV1.02B3,2013-03-22 05:11:00,
2013-03-22 01:16:00,29.1,17.7,29.66,WNW,286,4.0,5.0,62,0.00,,,0.00,WeatherCatV1.02B3,2013-03-22 05:16:00,
2013-03-22 01:21:00,29.0,17.6,29.66,WNW,294,3.0,6.0,62,0.00,,,0.00,WeatherCatV1.02B3,2013-03-22 05:21:00,
2013-03-22 01:26:00,29.1,18.1,29.66,West,281,4.0,7.0,63,0.00,,,0.00,WeatherCatV1.02B3,2013-03-22 05:26:00,
2013-03-22 01:31:00,29.1,17.7,29.66,WNW,291,4.0,8.0,62,0.00,,,0.00,WeatherCatV1.02B3,2013-03-22 05:31:00,
2013-03-22 01:36:00,29.1,18.1,29.66,West,278,2.0,7.0,63,0.00,,,0.00,WeatherCatV1.02B3,2013-03-22 05:36:00,
2013-03-22 01:41:00,29.1,18.1,29.66,West,265,3.0,6.0,63,0.00,,,0.00,WeatherCatV1.02B3,2013-03-22 05:41:00,
2013-03-22 01:46:00,29.1,18.1,29.66,WNW,286,5.0,9.0,63,0.00,,,0.00,WeatherCatV1.02B3,2013-03-22 05:46:00,
2013-03-22 01:51:00,29.0,18.4,29.66,West,280,6.0,7.0,64,0.00,,,0.00,WeatherCatV1.02B3,2013-03-22 05:51:00,
2013-03-22 01:56:00,29.0,18.0,29.66,West,277,2.0,8.0,63,0.00,,,0.00,WeatherCatV1.02B3,2013-03-22 05:56:00,
2013-03-22 02:01:00,29.0,18.4,29.66,West,277,6.0,9.0,64,0.00,,,0.00,WeatherCatV1.02B3,2013-03-22 06:01:00,
2013-03-22 02:06:00,28.9,18.3,29.66,WNW,288,6.0,9.0,64,0.00,,,0.00,WeatherCatV1.02B3,2013-03-22 06:06:00,
2013-03-22 02:11:00,28.9,18.3,29.66,WNW,293,0.0,7.0,64,0.00,,,0.00,WeatherCatV1.02B3,2013-03-22 06:11:00,
2013-03-22 02:16:00,28.9,18.6,29.66,WNW,288,6.0,7.0,65,0.00,,,0.00,WeatherCatV1.02B3,2013-03-22 06:16:00,
2013-03-22 02:21:00,28.9,18.6,29.66,WNW,286,5.0,13.0,65,0.00,,,0.00,WeatherCatV1.02B3,2013-03-22 06:21:00,
2013-03-22 02:26:00,28.9,18.6,29.66,NW,313,4.0,6.0,65,0.00,,,0.00,WeatherCatV1.02B3,2013-03-22 06:26:00,
2013-03-22 02:31:00,28.8,18.9,29.66,WNW,290,5.0,7.0,66,0.00,,,0.00,WeatherCatV1.02B3,2013-03-22 06:31:00,
2013-03-22 02:36:00,28.8,18.9,29.66,West,281,4.0,5.0,66,0.00,,,0.00,WeatherCatV1.02B3,2013-03-22 06:36:00,
2013-03-22 02:41:00,28.8,18.9,29.66,WNW,287,6.0,9.0,66,0.00,,,0.00,WeatherCatV1.02B3,2013-03-22 06:41:00,
2013-03-22 02:46:00,28.7,19.2,29.66,WNW,303,0.0,10.0,67,0.00,,,0.00,WeatherCatV1.02B3,2013-03-22 06:46:00,
2013-03-22 02:51:00,28.7,19.2,29.66,WNW,290,7.0,11.0,67,0.00,,,0.00,WeatherCatV1.02B3,2013-03-22 06:51:00,
2013-03-22 02:56:00,28.7,19.2,29.66,NW,313,2.0,7.0,67,0.00,,,0.00,WeatherCatV1.02B3,2013-03-22 06:56:00,
2013-03-22 03:01:00,28.6,19.4,29.66,West,273,2.0,6.0,68,0.00,,,0.00,WeatherCatV1.02B3,2013-03-22 07:01:00,
2013-03-22 03:06:00,28.5,19.3,29.66,West,263,6.0,6.0,68,0.00,,,0.00,WeatherCatV1.02B3,2013-03-22 07:06:00,
2013-03-22 03:11:00,28.5,19.3,29.66,West,261,4.0,7.0,68,0.00,,,0.00,WeatherCatV1.02B3,2013-03-22 07:11:00,
2013-03-22 03:16:00,28.4,19.5,29.65,West,266,1.0,7.0,69,0.00,,,0.00,WeatherCatV1.02B3,2013-03-22 07:16:00,
2013-03-22 03:21:00,28.3,19.1,29.65,West,271,3.0,5.0,68,0.00,,,0.00,WeatherCatV1.02B3,2013-03-22 07:21:00,
2013-03-22 03:26:00,28.3,19.5,29.65,West,273,3.0,3.0,69,0.00,,,0.00,WeatherCatV1.02B3,2013-03-22 07:26:00,
2013-03-22 03:31:00,28.3,19.5,29.65,West,273,0.0,4.0,69,0.00,,,0.00,WeatherCatV1.02B3,2013-03-22 07:31:00,
2013-03-22 03:36:00,28.3,19.5,29.65,WNW,284,2.0,3.0,69,0.00,,,0.00,WeatherCatV1.02B3,2013-03-22 07:36:00,
2013-03-22 03:41:00,28.2,19.4,29.65,West,281,5.0,10.0,69,0.00,,,0.00,WeatherCatV1.02B3,2013-03-22 07:41:00,
2013-03-22 03:46:00,28.2,19.4,29.65,West,275,2.0,5.0,69,0.00,,,0.00,WeatherCatV1.02B3,2013-03-22 07:46:00,
2013-03-22 03:51:00,28.1,19.3,29.65,NW,306,1.0,5.0,69,0.00,,,0.00,WeatherCatV1.02B3,2013-03-22 07:51:00,
2013-03-22 03:56:00,28.1,19.3,29.65,WNW,288,4.0,8.0,69,0.00,,,0.00,WeatherCatV1.02B3,2013-03-22 07:56:00,
2013-03-22 04:01:00,28.0,19.2,29.65,West,272,2.0,5.0,69,0.00,,,0.00,WeatherCatV1.02B3,2013-03-22 08:01:00,
2013-03-22 04:06:00,27.9,19.1,29.65,WNW,299,6.0,8.0,69,0.00,,,0.00,WeatherCatV1.02B3,2013-03-22 08:06:00,
2013-03-22 04:11:00,27.8,19.0,29.65,WNW,292,1.0,5.0,69,0.00,,,0.00,WeatherCatV1.02B3,2013-03-22 08:11:00,
2013-03-22 04:16:00,27.7,18.9,29.65,WNW,300,6.0,7.0,69,0.00,,,0.00,WeatherCatV1.02B3,2013-03-22 08:16:00,
2013-03-22 04:21:00,27.6,18.8,29.65,West,270,0.0,6.0,69,0.00,,,0.00,WeatherCatV1.02B3,2013-03-22 08:21:00,
2013-03-22 04:26:00,27.5,18.7,29.65,WNW,296,0.0,6.0,69,0.00,,,0.00,WeatherCatV1.02B3,2013-03-22 08:26:00,
2013-03-22 04:31:00,27.4,18.6,29.65,West,274,0.0,8.0,69,0.00,,,0.00,WeatherCatV1.02B3,2013-03-22 08:31:00,
2013-03-22 04:36:00,27.3,18.2,29.65,West,277,2.0,6.0,68,0.00,,,0.00,WeatherCatV1.02B3,2013-03-22 08:36:00,
2013-03-22 04:41:00,27.2,18.4,29.66,West,269,2.0,3.0,69,0.00,,,0.00,WeatherCatV1.02B3,2013-03-22 08:41:00,
2013-03-22 04:46:00,27.0,18.2,29.65,West,270,3.0,6.0,69,0.00,,,0.00,WeatherCatV1.02B3,2013-03-22 08:46:00,
2013-03-22 04:51:00,26.9,17.8,29.65,West,265,2.0,7.0,68,0.00,,,0.00,WeatherCatV1.02B3,2013-03-22 08:51:00,
2013-03-22 04:56:00,26.8,18.0,29.65,West,265,0.0,4.0,69,0.00,,,0.00,WeatherCatV1.02B3,2013-03-22 08:56:00,
2013-03-22 05:01:00,26.7,17.9,29.65,West,279,2.0,4.0,69,0.00,,,0.00,WeatherCatV1.02B3,2013-03-22 09:01:00,
2013-03-22 05:06:00,26.7,17.9,29.65,West,277,0.0,6.0,69,0.00,,,0.00,WeatherCatV1.02B3,2013-03-22 09:06:00,
2013-03-22 05:11:00,26.6,17.8,29.65,West,279,3.0,4.0,69,0.00,,,0.00,WeatherCatV1.02B3,2013-03-22 09:11:00,
2013-03-22 05:16:00,26.4,17.6,29.65,WNW,290,7.0,11.0,69,0.00,,,0.00,WeatherCatV1.02B3,2013-03-22 09:16:00,
2013-03-22 05:21:00,26.4,17.6,29.66,WNW,284,4.0,4.0,69,0.00,,,0.00,WeatherCatV1.02B3,2013-03-22 09:21:00,
2013-03-22 05:26:00,26.3,17.5,29.66,WNW,284,5.0,6.0,69,0.00,,,0.00,WeatherCatV1.02B3,2013-03-22 09:26:00,
2013-03-22 05:31:00,26.1,17.3,29.66,WNW,284,1.0,4.0,69,0.00,,,0.00,WeatherCatV1.02B3,2013-03-22 09:31:00,
2013-03-22 05:36:00,26.0,17.2,29.66,WNW,282,1.0,7.0,69,0.00,,,0.00,WeatherCatV1.02B3,2013-03-22 09:36:00,
2013-03-22 05:41:00,25.8,17.4,29.66,WNW,290,4.0,7.0,70,0.00,,,0.00,WeatherCatV1.02B3,2013-03-22 09:41:00,
2013-03-22 05:46:00,25.7,17.3,29.66,WSW,248,0.0,0.0,70,0.00,,,0.00,WeatherCatV1.02B3,2013-03-22 09:46:00,
2013-03-22 05:51:00,25.6,17.2,29.66,West,266,0.0,3.0,70,0.00,,,0.00,WeatherCatV1.02B3,2013-03-22 09:51:00,
2013-03-22 05:56:00,25.6,17.2,29.66,WNW,294,0.0,5.0,70,0.00,,,0.00,WeatherCatV1.02B3,2013-03-22 09:56:00,
2013-03-22 06:01:00,25.5,17.1,29.67,West,259,2.0,4.0,70,0.00,,,0.00,WeatherCatV1.02B3,2013-03-22 10:01:00,
2013-03-22 06:06:00,25.5,17.1,29.67,West,262,0.0,4.0,70,0.00,,,0.00,WeatherCatV1.02B3,2013-03-22 10:06:00,
2013-03-22 06:11:00,25.6,17.2,29.67,WNW,288,4.0,6.0,70,0.00,,,0.00,WeatherCatV1.02B3,2013-03-22 10:11:00,
2013-03-22 06:16:00,25.6,17.2,29.67,West,268,1.0,5.0,70,0.00,,,0.00,WeatherCatV1.02B3,2013-03-22 10:16:00,
2013-03-22 06:21:00,25.5,17.1,29.67,WNW,283,7.0,8.0,70,0.00,,,0.00,WeatherCatV1.02B3,2013-03-22 10:21:00,
2013-03-22 06:26:00,25.5,17.1,29.67,WNW,289,0.0,3.0,70,0.00,,,0.00,WeatherCatV1.02B3,2013-03-22 10:26:00,
2013-03-22 06:31:00,25.4,16.7,29.67,NW,304,2.0,3.0,69,0.00,,,0.00,WeatherCatV1.02B3,2013-03-22 10:31:00,
2013-03-22 06:36:00,25.4,16.7,29.67,WSW,242,0.0,3.0,69,0.00,,,0.00,WeatherCatV1.02B3,2013-03-22 10:36:00,
2013-03-22 06:41:00,25.2,16.5,29.67,West,259,2.0,5.0,69,0.00,,,0.00,WeatherCatV1.02B3,2013-03-22 10:41:00,
2013-03-22 06:46:00,25.2,16.1,29.67,WNW,291,0.0,5.0,68,0.00,,,0.00,WeatherCatV1.02B3,2013-03-22 10:46:00,
2013-03-22 06:51:00,25.1,16.0,29.68,WSW,252,3.0,6.0,68,0.00,,,0.00,WeatherCatV1.02B3,2013-03-22 10:51:00,
2013-03-22 06:56:00,24.9,15.9,29.68,West,262,2.0,2.0,68,0.00,,,0.00,WeatherCatV1.02B3,2013-03-22 10:56:00,
2013-03-22 07:01:00,24.8,15.8,29.68,West,262,0.0,1.0,68,0.00,,,0.00,WeatherCatV1.02B3,2013-03-22 11:01:00,
2013-03-22 07:07:00,24.7,15.7,29.69,West,262,0.0,0.0,68,0.00,,,0.00,WeatherCatV1.02B3,2013-03-22 11:07:00,
2013-03-22 07:12:00,24.4,15.7,29.69,West,262,0.0,2.0,69,0.00,,,0.00,WeatherCatV1.02B3,2013-03-22 11:12:00,
2013-03-22 07:17:00,24.3,15.6,29.69,West,262,0.0,1.0,69,0.00,,,0.00,WeatherCatV1.02B3,2013-03-22 11:17:00,
2013-03-22 07:22:00,24.3,15.6,29.70,West,262,0.0,4.0,69,0.00,,,0.00,WeatherCatV1.02B3,2013-03-22 11:22:00,
2013-03-22 07:28:00,24.5,15.8,29.70,West,279,3.0,5.0,69,0.00,,,0.00,WeatherCatV1.02B3,2013-03-22 11:28:00,
2013-03-22 07:33:00,24.7,16.0,29.70,WNW,286,3.0,5.0,69,0.00,,,0.00,WeatherCatV1.02B3,2013-03-22 11:33:00,
2013-03-22 07:38:00,24.8,15.8,29.70,West,278,5.0,9.0,68,0.00,,,0.00,WeatherCatV1.02B3,2013-03-22 11:38:00,
2013-03-22 07:43:00,24.9,15.9,29.70,WSW,254,1.0,8.0,68,0.00,,,0.00,WeatherCatV1.02B3,2013-03-22 11:43:00,
2013-03-22 07:48:00,25.1,15.7,29.70,West,269,2.0,5.0,67,0.00,,,0.00,WeatherCatV1.02B3,2013-03-22 11:48:00,
2013-03-22 07:53:00,25.3,15.9,29.71,West,277,2.0,9.0,67,0.00,,,0.00,WeatherCatV1.02B3,2013-03-22 11:53:00,
2013-03-22 07:58:00,25.4,16.0,29.71,NW,308,1.0,4.0,67,0.00,,,0.00,WeatherCatV1.02B3,2013-03-22 11:58:00,
2013-03-22 08:03:00,25.6,15.8,29.71,West,275,0.0,3.0,66,0.00,,,0.00,WeatherCatV1.02B3,2013-03-22 12:03:00,
2013-03-22 08:08:00,25.8,15.7,29.71,WSW,258,2.0,5.0,65,0.00,,,0.00,WeatherCatV1.02B3,2013-03-22 12:08:00,
2013-03-22 08:13:00,26.0,15.5,29.71,WNW,282,4.0,6.0,64,0.00,,,0.00,WeatherCatV1.02B3,2013-03-22 12:13:00,
2013-03-22 08:20:00,26.1,15.6,29.71,WNW,284,4.0,5.0,64,0.00,,,0.00,WeatherCatV1.02B3,2013-03-22 12:20:00,
2013-03-22 08:25:00,26.3,15.4,29.71,West,279,0.0,7.0,63,0.00,,,0.00,WeatherCatV1.02B3,2013-03-22 12:25:00,
2013-03-22 08:30:00,26.5,15.6,29.71,West,270,10.0,10.0,63,0.00,,,0.00,WeatherCatV1.02B3,2013-03-22 12:30:00,
2013-03-22 08:35:00,26.6,15.7,29.71,NW,311,7.0,9.0,63,0.00,,,0.00,WeatherCatV1.02B3,2013-03-22 12:35:00,
2013-03-22 08:40:00,26.8,15.6,29.71,West,274,8.0,11.0,62,0.00,,,0.00,WeatherCatV1.02B3,2013-03-22 12:40:00,
2013-03-22 08:45:00,27.0,15.7,29.71,West,281,6.0,12.0,62,0.00,,,0.00,WeatherCatV1.02B3,2013-03-22 12:45:00,
2013-03-22 08:50:00,27.2,15.6,29.71,West,260,1.0,1.0,61,0.00,,,0.00,WeatherCatV1.02B3,2013-03-22 12:50:00,
2013-03-22 08:55:00,27.5,15.8,29.71,WNW,290,1.0,1.0,61,0.00,,,0.00,WeatherCatV1.02B3,2013-03-22 12:55:00,
2013-03-22 09:00:00,27.8,15.7,29.71,WNW,285,0.0,1.0,60,0.00,,,0.00,WeatherCatV1.02B3,2013-03-22 13:00:00,
2013-03-22 09:05:00,27.9,15.8,29.71,West,275,0.0,1.0,60,0.00,,,0.00,WeatherCatV1.02B3,2013-03-22 13:05:00,
2013-03-22 09:10:00,28.4,15.9,29.71,NW,314,0.0,1.0,59,0.00,,,0.00,WeatherCatV1.02B3,2013-03-22 13:10:00,
2013-03-22 09:15:00,28.9,16.4,29.71,West,275,0.0,1.0,59,0.00,,,0.00,WeatherCatV1.02B3,2013-03-22 13:15:00,
2013-03-22 09:20:00,29.4,16.5,29.71,WNW,295,1.0,1.0,58,0.00,,,0.00,WeatherCatV1.02B3,2013-03-22 13:20:00,
2013-03-22 09:25:00,29.9,16.5,29.71,NW,305,0.0,1.0,57,0.00,,,0.00,WeatherCatV1.02B3,2013-03-22 13:25:00,
2013-03-22 09:30:00,30.1,16.7,29.71,West,266,0.0,1.0,57,0.00,,,0.00,WeatherCatV1.02B3,2013-03-22 13:30:00,
2013-03-22 09:35:00,30.3,17.3,29.71,West,279,1.0,1.0,58,0.00,,,0.00,WeatherCatV1.02B3,2013-03-22 13:35:00,
2013-03-22 09:40:00,30.5,17.1,29.71,West,279,0.0,5.0,57,0.00,,,0.00,WeatherCatV1.02B3,2013-03-22 13:40:00,
2013-03-22 09:45:00,30.7,17.7,29.71,WNW,301,4.0,5.0,58,0.00,,,0.00,WeatherCatV1.02B3,2013-03-22 13:45:00,
2013-03-22 09:50:00,30.8,17.0,29.71,WNW,294,0.0,4.0,56,0.00,,,0.00,WeatherCatV1.02B3,2013-03-22 13:50:00,
2013-03-22 09:55:00,31.2,17.4,29.71,West,281,0.0,1.0,56,0.00,,,0.00,WeatherCatV1.02B3,2013-03-22 13:55:00,
2013-03-22 10:01:00,31.2,17.4,29.71,West,281,0.0,1.0,56,0.00,,,0.00,WeatherCatV1.02B3,2013-03-22 14:01:00,
2013-03-22 10:06:00,31.5,17.6,29.71,West,275,0.0,1.0,56,0.00,,,0.00,WeatherCatV1.02B3,2013-03-22 14:06:00,
2013-03-22 10:11:00,31.6,16.9,29.71,West,263,1.0,1.0,54,0.00,,,0.00,WeatherCatV1.02B3,2013-03-22 14:11:00,
2013-03-22 10:16:00,31.1,16.4,29.71,West,278,2.0,9.0,54,0.00,,,0.00,WeatherCatV1.02B3,2013-03-22 14:16:00,
2013-03-22 10:21:00,31.6,17.3,29.71,NE,34,1.0,3.0,55,0.00,,,0.00,WeatherCatV1.02B3,2013-03-22 14:21:00,
2013-03-22 10:26:00,32.5,17.7,29.71,West,261,8.0,9.0,54,0.00,,,0.00,WeatherCatV1.02B3,2013-03-22 14:26:00,
2013-03-22 10:31:00,32.3,16.7,29.70,WNW,282,3.0,9.0,52,0.00,,,0.00,WeatherCatV1.02B3,2013-03-22 14:31:00,
2013-03-22 10:36:00,32.3,17.1,29.70,WNW,282,0.0,9.0,53,0.00,,,0.00,WeatherCatV1.02B3,2013-03-22 14:36:00,
2013-03-22 10:41:00,32.8,17.6,29.70,West,266,9.0,9.0,53,0.00,,,0.01,WeatherCatV1.02B3,2013-03-22 14:41:00,
2013-03-22 10:46:00,32.9,17.7,29.70,West,281,6.0,9.0,53,0.00,,,0.01,WeatherCatV1.02B3,2013-03-22 14:46:00,
2013-03-22 10:51:00,32.9,17.2,29.70,West,275,7.0,9.0,52,0.00,,,0.01,WeatherCatV1.02B3,2013-03-22 14:51:00,
2013-03-22 10:56:00,32.9,17.2,29.70,SW,226,5.0,12.0,52,0.00,,,0.01,WeatherCatV1.02B3,2013-03-22 14:56:00,
2013-03-22 11:02:00,33.3,17.6,29.70,WNW,282,7.0,14.0,52,0.00,,,0.01,WeatherCatV1.02B3,2013-03-22 15:02:00,
2013-03-22 11:07:00,33.5,18.2,29.70,WSW,257,5.0,9.0,53,0.00,,,0.01,WeatherCatV1.02B3,2013-03-22 15:07:00,
2013-03-22 11:12:00,33.8,17.6,29.70,West,261,9.0,10.0,51,0.00,,,0.01,WeatherCatV1.02B3,2013-03-22 15:12:00,
2013-03-22 11:17:00,33.9,17.2,29.70,WNW,284,0.0,1.0,50,0.00,,,0.01,WeatherCatV1.02B3,2013-03-22 15:17:00,
2013-03-22 11:22:00,34.4,18.2,29.69,West,279,1.0,4.0,51,0.00,,,0.01,WeatherCatV1.02B3,2013-03-22 15:22:00,
2013-03-22 11:27:00,34.8,18.5,29.69,WNW,294,1.0,5.0,51,0.00,,,0.01,WeatherCatV1.02B3,2013-03-22 15:27:00,
2013-03-22 11:32:00,35.0,17.8,29.69,West,262,5.0,8.0,49,0.00,,,0.01,WeatherCatV1.02B3,2013-03-22 15:32:00,
2013-03-22 11:37:00,35.0,17.8,29.69,NW,306,10.0,12.0,49,0.00,,,0.01,WeatherCatV1.02B3,2013-03-22 15:37:00,
2013-03-22 11:42:00,34.5,17.3,29.69,WNW,301,0.0,12.0,49,0.00,,,0.01,WeatherCatV1.02B3,2013-03-22 15:42:00,
2013-03-22 11:47:00,34.9,18.2,29.69,West,265,3.0,6.0,50,0.00,,,0.01,WeatherCatV1.02B3,2013-03-22 15:47:00,
2013-03-22 11:52:00,35.2,18.0,29.69,WSW,257,0.0,9.0,49,0.00,,,0.01,WeatherCatV1.02B3,2013-03-22 15:52:00,
2013-03-22 11:57:00,35.8,19.0,29.69,WSW,244,5.0,6.0,50,0.00,,,0.02,WeatherCatV1.02B3,2013-03-22 15:57:00,
2013-03-22 12:02:00,35.2,18.0,29.69,WSW,254,0.0,15.0,49,0.00,,,0.02,WeatherCatV1.02B3,2013-03-22 16:02:00,
2013-03-22 12:07:00,35.4,18.6,29.70,West,263,0.0,10.0,50,0.00,,,0.02,WeatherCatV1.02B3,2013-03-22 16:07:00,
2013-03-22 12:12:00,35.9,19.6,29.69,NW,319,2.0,7.0,51,0.00,,,0.02,WeatherCatV1.02B3,2013-03-22 16:12:00,
2013-03-22 12:17:00,36.2,18.9,29.69,WSW,256,2.0,5.0,49,0.00,,,0.02,WeatherCatV1.02B3,2013-03-22 16:17:00,
2013-03-22 12:22:00,35.6,18.8,29.69,NW,315,8.0,8.0,50,0.00,,,0.02,WeatherCatV1.02B3,2013-03-22 16:22:00,
2013-03-22 12:27:00,35.3,18.1,29.69,West,269,0.0,4.0,49,0.00,,,0.02,WeatherCatV1.02B3,2013-03-22 16:27:00,
2013-03-22 12:32:00,35.6,19.3,29.69,West,279,0.0,10.0,51,0.00,,,0.03,WeatherCatV1.02B3,2013-03-22 16:32:00,
2013-03-22 12:37:00,35.7,18.9,29.69,West,271,7.0,17.0,50,0.00,,,0.03,WeatherCatV1.02B3,2013-03-22 16:37:00,
2013-03-22 12:47:00,35.8,18.5,29.69,WSW,251,7.0,9.0,49,0.00,,,0.03,WeatherCatV1.02B3,2013-03-22 16:47:00,
2013-03-22 12:52:00,35.8,19.0,29.69,West,275,6.0,9.0,50,0.00,,,0.03,WeatherCatV1.02B3,2013-03-22 16:52:00,
2013-03-22 12:57:00,35.5,18.7,29.69,WSW,252,5.0,6.0,50,0.00,,,0.03,WeatherCatV1.02B3,2013-03-22 16:57:00,
2013-03-22 13:02:00,35.2,18.4,29.69,WNW,287,1.0,9.0,50,0.00,,,0.03,WeatherCatV1.02B3,2013-03-22 17:02:00,
2013-03-22 13:07:00,35.1,19.3,29.69,WSW,251,2.0,7.0,52,0.00,,,0.03,WeatherCatV1.02B3,2013-03-22 17:07:00,
2013-03-22 13:12:00,35.5,18.7,29.69,West,271,8.0,11.0,50,0.00,,,0.03,WeatherCatV1.02B3,2013-03-22 17:12:00,
2013-03-22 13:19:00,36.3,19.0,29.69,WNW,294,5.0,11.0,49,0.00,,,0.03,WeatherCatV1.02B3,2013-03-22 17:19:00,
2013-03-22 13:24:00,36.4,19.1,29.69,NW,306,2.0,11.0,49,0.00,,,0.03,WeatherCatV1.02B3,2013-03-22 17:24:00,
2013-03-22 13:29:00,36.3,19.0,29.69,WNW,282,9.0,10.0,49,0.00,,,0.03,WeatherCatV1.02B3,2013-03-22 17:29:00,
2013-03-22 13:34:00,36.2,18.4,29.69,WSW,244,9.0,17.0,48,0.00,,,0.03,WeatherCatV1.02B3,2013-03-22 17:34:00,
2013-03-22 13:39:00,35.7,18.9,29.69,WNW,292,7.0,13.0,50,0.00,,,0.03,WeatherCatV1.02B3,2013-03-22 17:39:00,
2013-03-22 13:47:00,35.8,19.5,29.69,West,266,4.0,8.0,51,0.00,,,0.03,WeatherCatV1.02B3,2013-03-22 17:47:00,
2013-03-22 13:52:00,36.0,19.6,29.69,West,273,6.0,11.0,51,0.00,,,0.03,WeatherCatV1.02B3,2013-03-22 17:52:00,
2013-03-22 13:57:00,35.9,19.1,29.68,WSW,242,4.0,10.0,50,0.00,,,0.03,WeatherCatV1.02B3,2013-03-22 17:57:00,
2013-03-22 14:02:00,36.0,19.6,29.68,WNW,294,1.0,1.0,51,0.00,,,0.03,WeatherCatV1.02B3,2013-03-22 18:02:00,
2013-03-22 14:07:00,36.4,20.0,29.68,West,271,5.0,9.0,51,0.00,,,0.03,WeatherCatV1.02B3,2013-03-22 18:07:00,
2013-03-22 14:12:00,36.3,19.9,29.69,WNW,292,4.0,9.0,51,0.00,,,0.03,WeatherCatV1.02B3,2013-03-22 18:12:00,
2013-03-22 14:17:00,36.4,20.0,29.68,West,280,2.0,12.0,51,0.00,,,0.03,WeatherCatV1.02B3,2013-03-22 18:17:00,
2013-03-22 14:22:00,36.8,20.4,29.68,West,274,0.0,13.0,51,0.00,,,0.04,WeatherCatV1.02B3,2013-03-22 18:22:00,
2013-03-22 14:27:00,36.8,20.4,29.68,West,263,9.0,10.0,51,0.00,,,0.04,WeatherCatV1.02B3,2013-03-22 18:27:00,
2013-03-22 14:32:00,36.3,20.4,29.68,West,271,6.0,8.0,52,0.00,,,0.04,WeatherCatV1.02B3,2013-03-22 18:32:00,
2013-03-22 14:37:00,36.4,20.0,29.68,North,5,2.0,13.0,51,0.00,,,0.04,WeatherCatV1.02B3,2013-03-22 18:37:00,
2013-03-22 14:49:00,37.0,19.6,29.68,WNW,293,8.0,9.0,49,0.00,,,0.04,WeatherCatV1.02B3,2013-03-22 18:49:00,
2013-03-22 14:54:00,37.0,20.6,29.68,WNW,299,6.0,6.0,51,0.00,,,0.04,WeatherCatV1.02B3,2013-03-22 18:54:00,
2013-03-22 15:00:00,37.5,18.6,29.67,West,276,3.0,8.0,46,0.00,,,0.04,WeatherCatV1.02B3,2013-03-22 19:00:00,
2013-03-22 15:11:00,38.0,17.5,29.67,West,281,7.0,13.0,43,0.00,,,0.04,WeatherCatV1.02B3,2013-03-22 19:11:00,
2013-03-22 15:21:00,38.9,18.3,29.67,WSW,258,7.0,12.0,43,0.00,,,0.04,WeatherCatV1.02B3,2013-03-22 19:21:00,
2013-03-22 15:26:00,38.1,18.1,29.68,WSW,252,10.0,15.0,44,0.00,,,0.04,WeatherCatV1.02B3,2013-03-22 19:26:00,
2013-03-22 15:31:00,37.1,17.2,29.68,WNW,285,11.0,19.0,44,0.00,,,0.04,WeatherCatV1.02B3,2013-03-22 19:31:00,
2013-03-22 15:36:00,36.8,18.0,29.67,WNW,286,7.0,15.0,46,0.00,,,0.04,WeatherCatV1.02B3,2013-03-22 19:36:00,
2013-03-22 15:41:00,36.9,17.6,29.67,West,273,6.0,12.0,45,0.00,,,0.04,WeatherCatV1.02B3,2013-03-22 19:41:00,
2013-03-22 15:46:00,37.2,19.3,29.68,WSW,252,7.0,14.0,48,0.00,,,0.04,WeatherCatV1.02B3,2013-03-22 19:46:00,
2013-03-22 15:51:00,37.1,19.2,29.68,WNW,296,8.0,8.0,48,0.00,,,0.04,WeatherCatV1.02B3,2013-03-22 19:51:00,
2013-03-22 15:57:00,37.4,18.5,29.68,NW,308,5.0,5.0,46,0.00,,,0.04,WeatherCatV1.02B3,2013-03-22 19:57:00,
2013-03-22 16:03:00,37.2,19.8,29.68,West,273,1.0,9.0,49,0.00,,,0.04,WeatherCatV1.02B3,2013-03-22 20:03:00,
2013-03-22 16:08:00,37.1,19.7,29.68,WNW,289,8.0,8.0,49,0.00,,,0.04,WeatherCatV1.02B3,2013-03-22 20:08:00,
2013-03-22 16:13:00,36.6,18.8,29.68,West,279,4.0,11.0,48,0.00,,,0.04,WeatherCatV1.02B3,2013-03-22 20:13:00,
2013-03-22 16:19:00,36.4,19.6,29.68,West,278,4.0,4.0,50,0.00,,,0.04,WeatherCatV1.02B3,2013-03-22 20:19:00,
2013-03-22 16:24:00,36.2,19.4,29.68,WNW,295,7.0,8.0,50,0.00,,,0.04,WeatherCatV1.02B3,2013-03-22 20:24:00,
2013-03-22 16:29:00,36.2,19.4,29.68,West,268,7.0,12.0,50,0.00,,,0.04,WeatherCatV1.02B3,2013-03-22 20:29:00,
2013-03-22 16:34:00,36.2,19.4,29.68,WSW,246,12.0,12.0,50,0.00,,,0.04,WeatherCatV1.02B3,2013-03-22 20:34:00,
2013-03-22 16:39:00,36.1,19.3,29.69,West,281,12.0,13.0,50,0.00,,,0.04,WeatherCatV1.02B3,2013-03-22 20:39:00,
2013-03-22 16:45:00,35.8,20.4,29.69,West,270,4.0,18.0,53,0.00,,,0.04,WeatherCatV1.02B3,2013-03-22 20:45:00,
2013-03-22 16:50:00,35.9,20.5,29.69,West,277,5.0,11.0,53,0.00,,,0.04,WeatherCatV1.02B3,2013-03-22 20:50:00,
2013-03-22 16:56:00,36.1,20.6,29.69,West,271,8.0,14.0,53,0.00,,,0.04,WeatherCatV1.02B3,2013-03-22 20:56:00,
2013-03-22 17:01:00,36.1,21.1,29.69,WNW,284,10.0,11.0,54,0.00,,,0.04,WeatherCatV1.02B3,2013-03-22 21:01:00,
2013-03-22 17:06:00,35.7,21.1,29.69,WNW,282,14.0,14.0,55,0.00,,,0.04,WeatherCatV1.02B3,2013-03-22 21:06:00,
2013-03-22 17:11:00,35.4,21.7,29.70,NW,310,8.0,14.0,57,0.00,,,0.04,WeatherCatV1.02B3,2013-03-22 21:11:00,
2013-03-22 17:17:00,35.3,22.0,29.70,WNW,294,7.0,19.0,58,0.00,,,0.04,WeatherCatV1.02B3,2013-03-22 21:17:00,
2013-03-22 17:22:00,35.2,22.7,29.70,WNW,286,9.0,15.0,60,0.00,,,0.04,WeatherCatV1.02B3,2013-03-22 21:22:00,
2013-03-22 17:41:00,35.1,22.2,29.70,WNW,286,5.0,5.0,59,0.00,,,0.04,WeatherCatV1.02B3,2013-03-22 21:41:00,
2013-03-22 17:49:00,35.2,22.7,29.71,NNW,338,4.0,8.0,60,0.00,,,0.04,WeatherCatV1.02B3,2013-03-22 21:49:00,
2013-03-22 17:57:00,35.2,22.3,29.71,WSW,251,5.0,5.0,59,0.00,,,0.04,WeatherCatV1.02B3,2013-03-22 21:57:00,
2013-03-22 18:02:00,35.2,22.3,29.71,WSW,258,8.0,8.0,59,0.00,,,0.04,WeatherCatV1.02B3,2013-03-22 22:02:00,
2013-03-22 18:07:00,35.2,21.9,29.71,WNW,286,5.0,14.0,58,0.00,,,0.04,WeatherCatV1.02B3,2013-03-22 22:07:00,
2013-03-22 18:12:00,35.2,21.9,29.71,West,273,2.0,6.0,58,0.00,,,0.04,WeatherCatV1.02B3,2013-03-22 22:12:00,
2013-03-22 18:17:00,35.2,21.9,29.71,West,270,6.0,11.0,58,0.00,,,0.04,WeatherCatV1.02B3,2013-03-22 22:17:00,
2013-03-22 18:22:00,35.2,21.9,29.71,WNW,299,3.0,11.0,58,0.00,,,0.04,WeatherCatV1.02B3,2013-03-22 22:22:00,
2013-03-22 18:27:00,35.1,22.2,29.72,WNW,295,5.0,13.0,59,0.00,,,0.04,WeatherCatV1.02B3,2013-03-22 22:27:00,
2013-03-22 18:32:00,34.9,22.8,29.72,WNW,294,0.0,8.0,61,0.00,,,0.04,WeatherCatV1.02B3,2013-03-22 22:32:00,
2013-03-22 18:37:00,34.8,22.7,29.72,West,263,4.0,8.0,61,0.00,,,0.04,WeatherCatV1.02B3,2013-03-22 22:37:00,
2013-03-22 18:42:00,34.6,22.9,29.73,West,272,4.0,10.0,62,0.00,,,0.04,WeatherCatV1.02B3,2013-03-22 22:42:00,
2013-03-22 18:47:00,34.4,23.1,29.73,WNW,284,5.0,9.0,63,0.00,,,0.04,WeatherCatV1.02B3,2013-03-22 22:47:00,
2013-03-22 18:52:00,34.3,23.0,29.73,West,281,8.0,14.0,63,0.00,,,0.04,WeatherCatV1.02B3,2013-03-22 22:52:00,
2013-03-22 18:57:00,34.1,23.2,29.73,West,276,5.0,13.0,64,0.00,,,0.04,WeatherCatV1.02B3,2013-03-22 22:57:00,
2013-03-22 19:02:00,33.9,23.4,29.73,West,261,4.0,11.0,65,0.00,,,0.04,WeatherCatV1.02B3,2013-03-22 23:02:00,
2013-03-22 19:07:00,33.8,23.3,29.73,West,267,10.0,13.0,65,0.00,,,0.04,WeatherCatV1.02B3,2013-03-22 23:07:00,
2013-03-22 19:12:00,33.6,23.8,29.74,WNW,286,5.0,10.0,67,0.00,,,0.04,WeatherCatV1.02B3,2013-03-22 23:12:00,
2013-03-22 19:17:00,33.5,23.7,29.74,West,260,4.0,4.0,67,0.00,,,0.04,WeatherCatV1.02B3,2013-03-22 23:17:00,
2013-03-22 19:22:00,33.4,23.6,29.74,West,279,4.0,9.0,67,0.00,,,0.04,WeatherCatV1.02B3,2013-03-22 23:22:00,
2013-03-22 19:27:00,33.4,24.0,29.74,West,263,4.0,4.0,68,0.00,,,0.04,WeatherCatV1.02B3,2013-03-22 23:27:00,
2013-03-22 19:32:00,33.3,23.9,29.74,West,269,8.0,10.0,68,0.00,,,0.04,WeatherCatV1.02B3,2013-03-22 23:32:00,
2013-03-22 19:37:00,33.4,24.0,29.74,West,269,4.0,11.0,68,0.00,,,0.04,WeatherCatV1.02B3,2013-03-22 23:37:00,
2013-03-22 19:42:00,33.4,24.0,29.74,WNW,289,5.0,11.0,68,0.00,,,0.04,WeatherCatV1.02B3,2013-03-22 23:42:00,
2013-03-22 19:47:00,33.4,24.0,29.74,West,269,11.0,16.0,68,0.00,,,0.04,WeatherCatV1.02B3,2013-03-22 23:47:00,
2013-03-22 19:52:00,33.3,23.2,29.74,West,275,7.0,12.0,66,0.00,,,0.04,WeatherCatV1.02B3,2013-03-22 23:52:00,
2013-03-22 19:58:00,33.3,23.2,29.75,West,271,3.0,13.0,66,0.00,,,0.04,WeatherCatV1.02B3,2013-03-22 23:58:00,
2013-03-22 20:05:00,33.3,22.8,29.75,WNW,285,4.0,4.0,65,0.00,,,0.04,WeatherCatV1.02B3,2013-03-23 00:05:00,
2013-03-22 20:35:00,32.7,21.9,29.76,WNW,296,5.0,5.0,64,0.00,,,0.04,WeatherCatV1.02B3,2013-03-23 00:35:00,
2013-03-22 20:40:00,32.6,22.2,29.76,West,278,3.0,5.0,65,0.00,,,0.04,WeatherCatV1.02B3,2013-03-23 00:40:00,
2013-03-22 20:47:00,32.4,22.0,29.76,West,269,6.0,6.0,65,0.00,,,0.04,WeatherCatV1.02B3,2013-03-23 00:47:00,
2013-03-22 20:55:00,32.2,21.8,29.76,WSW,255,3.0,5.0,65,0.00,,,0.04,WeatherCatV1.02B3,2013-03-23 00:55:00,
2013-03-22 21:14:00,31.7,21.7,29.76,West,275,3.0,5.0,66,0.00,,,0.04,WeatherCatV1.02B3,2013-03-23 01:14:00,
2013-03-22 21:19:00,31.7,21.7,29.76,SW,236,3.0,5.0,66,0.00,,,0.04,WeatherCatV1.02B3,2013-03-23 01:19:00,
2013-03-22 21:30:00,31.5,21.5,29.76,West,265,10.0,10.0,66,0.00,,,0.04,WeatherCatV1.02B3,2013-03-23 01:30:00,
2013-03-22 22:00:00,33.3,22.8,29.75,West,269,6.0,6.0,65,0.00,,,0.00,WeatherCatV1.02B3,2013-03-23 02:00:00,
2013-03-22 22:01:00,30.9,20.9,29.77,WNW,284,8.0,13.0,66,0.00,,,0.04,WeatherCatV1.02B3,2013-03-23 02:01:00,
2013-03-22 22:05:00,30.9,20.9,29.78,West,270,5.0,11.0,66,0.00,,,0.00,WeatherCatV1.02B3,2013-03-23 02:05:00,
2013-03-22 22:10:00,30.9,20.9,29.78,West,270,5.0,11.0,66,0.00,,,0.00,WeatherCatV1.02B3,2013-03-23 02:10:00,
2013-03-22 22:15:00,40.9,37.0,29.57,SSE,158,0.0,0.0,86,0.00,,,0.00,WeatherCatV1.02B3,2013-03-23 02:15:00,
2013-03-22 22:20:00,40.9,37.0,29.57,SSE,158,0.0,0.0,86,0.00,,,0.00,WeatherCatV1.02B3,2013-03-23 02:20:00,
2013-03-22 22:25:00,40.9,37.0,29.57,SSE,158,0.0,0.0,86,0.00,,,0.00,WeatherCatV1.02B3,2013-03-23 02:25:00,
2013-03-22 22:30:00,40.9,37.0,29.57,SSE,158,0.0,0.0,86,0.00,,,0.00,WeatherCatV1.02B3,2013-03-23 02:30:00,
2013-03-22 22:35:00,40.9,37.0,29.57,SSE,158,0.0,0.0,86,0.00,,,0.00,WeatherCatV1.02B3,2013-03-23 02:35:00,
2013-03-22 22:40:00,40.9,37.0,29.57,SSE,158,0.0,0.0,86,0.00,,,0.00,WeatherCatV1.02B3,2013-03-23 02:40:00,
2013-03-22 22:45:00,40.9,37.0,29.57,SSE,158,0.0,0.0,86,0.00,,,0.00,WeatherCatV1.02B3,2013-03-23 02:45:00,
2013-03-22 22:50:00,40.9,37.0,29.57,SSE,158,0.0,0.0,86,0.00,,,0.00,WeatherCatV1.02B3,2013-03-23 02:50:00,
2013-03-22 22:55:00,40.9,37.0,29.57,SSE,158,0.0,0.0,86,0.00,,,0.00,WeatherCatV1.02B3,2013-03-23 02:55:00,
2013-03-22 23:00:00,40.9,37.0,29.57,SSE,158,0.0,0.0,86,0.00,,,0.00,WeatherCatV1.02B3,2013-03-23 03:00:00,
2013-03-22 23:05:00,40.9,37.0,29.57,SSE,158,0.0,0.0,86,0.00,,,0.00,WeatherCatV1.02B3,2013-03-23 03:05:00,
2013-03-22 23:10:00,40.9,37.0,29.57,SSE,158,0.0,0.0,86,0.00,,,0.00,WeatherCatV1.02B3,2013-03-23 03:10:00,
2013-03-22 23:15:00,40.9,37.0,29.57,SSE,158,0.0,0.0,86,0.00,,,0.00,WeatherCatV1.02B3,2013-03-23 03:15:00,
2013-03-22 23:20:00,40.9,37.0,29.57,SSE,158,0.0,0.0,86,0.00,,,0.00,WeatherCatV1.02B3,2013-03-23 03:20:00,
2013-03-22 23:25:00,40.9,37.0,29.57,SSE,158,0.0,0.0,86,0.00,,,0.00,WeatherCatV1.02B3,2013-03-23 03:25:00,
2013-03-22 23:30:00,40.9,37.0,29.57,SSE,158,0.0,0.0,86,0.00,,,0.00,WeatherCatV1.02B3,2013-03-23 03:30:00,
2013-03-22 23:35:00,40.9,37.0,29.57,SSE,158,0.0,0.0,86,0.00,,,0.00,WeatherCatV1.02B3,2013-03-23 03:35:00,
2013-03-22 23:40:00,40.9,37.0,29.57,SSE,158,0.0,0.0,86,0.00,,,0.00,WeatherCatV1.02B3,2013-03-23 03:40:00,
2013-03-22 23:45:00,40.9,37.0,29.57,SSE,158,0.0,0.0,86,0.00,,,0.00,WeatherCatV1.02B3,2013-03-23 03:45:00,
2013-03-22 23:50:00,40.9,37.0,29.57,SSE,158,0.0,0.0,86,0.00,,,0.00,WeatherCatV1.02B3,2013-03-23 03:50:00,
2013-03-22 23:55:00,40.9,37.0,29.57,SSE,158,0.0,0.0,86,0.00,,,0.00,WeatherCatV1.02B3,2013-03-23 03:55:00,